DateTime,Index
2005091200,0.0
2005091206,0.0
2005091212,0.0
2005091218,0.0
2005091300,0.0
2005091306,0.0
2005091312,0.0
2005091318,0.0
2005091400,0.0
2005091406,0.0
2005091412,0.0
2005091418,0.0
2005091500,1225.0
2005091506,1600.0
2005091512,2025.0
2005091518,3025.0
2005091600,3600.0
2005091606,4225.0
2005091612,4900.0
2005091618,5625.0
2005091700,6400.0
2005091706,7225.0
2005091712,7225.0
2005091718,7225.0
2005091800,7225.0
2005091806,7225.0
2005091812,8100.0
2005091818,8100.0
2005091900,8100.0
2005091906,9025.0
2005091912,10000.0
2005091918,11025.0
2005092000,12100.0
2005092006,12100.0
2005092012,11025.0
2005092018,11025.0
2005092100,11025.0
2005092106,11025.0
2005092112,10000.0
2005092118,10000.0
2005092200,9025.0
2005092206,8100.0
2005092212,6400.0
2005092218,4900.0
2005092300,3600.0
2005092306,3025.0
2005092312,2025.0
2005092318,1225.0
2005092400,0.0
2005092406,0.0
2005092412,0.0
2005092418,0.0
2005092500,0.0
